Location: Im Fang
(46.6019°N, 7.2397°E)
Time: 00:03:29
(UTC+00:00)

Okean 1 - Pass Details

Date: 08 December 2019
Orbit: 539 x 555 km, 82.5° (Epoch: 19 January)

Event Time Altitude Azimuth Distance (km) Brightness Sun altitude
Exits shadow 04:58:50 12° 359° (N) 1,693 5.7 -20.2°
Maximum altitude 05:02:29 58° 79° (E) 634 3.8 -19.6°
Drops below altitude 10° 05:06:23 10° 159° (SSE) 1,799 6.4 -19.0°
Sets 05:08:33 0° 163° (SSE) 2,688 7.3 -18.6°
